Погода в Казанке

Россия / Томская область     57°05′16″N   85°55′06″E
темп.,
°C
ветер,
м/с
пор.,
м/с
влажн.,
%
обл.,
%
осадки,
мм/ч
давл.,
гПа
погр.,
м
6 марта, сб
сб601:00−5юз6149397 0.3 1011955
04:00−5юз71490100 0.3 1011855
07:00−5юз71490100 0.4 1011779
10:00−5ююз81492100 0.2 1010908
13:00−5ююз91492100 0.9 10081077
16:00−4юз91490100 0.6 10071162
19:00−5юз71492100 0.9 1007929
22:00−5юз81589100 0.3 1005915
7 марта, вс
вс701:00−3юз81689100 0.4 10051060
04:00−6зюз5148572 0.1 1005554
07:00−8зюз5138669 0.1 1008487
10:00−9зюз7138636 0.0 1010687
13:00−7зюз7118018 0.0 10131003
16:00−7зюз7118167 0.1 10141439
19:00−9зюз5128782 0.2 1017540
22:00−11зюз4119060 0.0 1020345
8 марта, пн
пн801:00−15зюз479430 0.0 102298
04:00−15ююз349668 0.0 102280
07:00−14ююв359483 0.0 1022105
10:00−11ююв51086100 0.0 1018301
13:00−6ююв71386100 0.0 1013597
16:00−2ю81388100 0.0 1007764
19:000ю61585100 0.1 1003890
22:00−2юз91782100 0.0 1001938
9 марта, вт
вт901:00−3юз81690100 0.2 10021120
04:00−9зюз7158798 0.2 1007884
07:00−11зюз7158899 0.2 1013801
10:00−11зюз71387100 0.1 1016828
13:00−9зюз71185100 0.1 1019921
16:00−9зюз61084100 0.1 1021970
19:00−11юз499098 0.1 1022221
22:00−14ююз4119245 0.0 1021216
10 марта, ср
ср1001:00−13ю4109169 0.0 1019274
04:00−11ю51290100 0.0 1016403
07:00−12ююз51288100 0.0 1014332
10:00−9юз7148482 0.0 1012595
13:00−6юз7128356 0.0 1012838
16:00−5зюз6108242 0.0 1013844
19:00−7юз389065 0.0 1014225
22:00−10юз3694100 0.0 1014115